Location: Newark
(44.3681°N, 100.3364°W)
Time: 17:44:38
(UTC+00:00)

Vanguard 1 - Pass Details

Date: 27 February 2020
Orbit: 649 x 3833 km, 34.2° (Epoch: 05 April)

Event Time Altitude Azimuth Distance (km) Brightness Sun altitude
Rises 14:07:15 0° 241° (WSW) 7,863 14.3 6.9°
Reaches altitude 10° 14:12:41 10° 238° (WSW) 6,924 14.0 7.8°
Maximum altitude 14:35:03 57° 168° (SSE) 3,744 13.5 11.5°
Drops below altitude 10° 14:50:30 10° 96° (E) 5,008 15.3 14.0°
Sets 14:53:41 0° 92° (E) 5,666 15.2 14.5°
